Meteopurmerend
purmerend
Purmerend - Baaienwijk



My webcam  My webcam


Onweer radar Meer informatie blitzortung!


Regen radar Meer informatie rain snow radar


Bezoek onze andere website:

CandyAppleRed WebdesignWebdesign Purmerend Candy Apple Red

MeteopurmerendBlog

Template documentation
and downloads



Het weer levert geen direct gevaar op.    Er zijn geen waarschuwingen afgegeven.

15 daagse weersverwachting Kristiansund (NO)

  • Overzicht
  • Per uur
  • 15 dagen
  • Extra
  • Vergelijk
  • Kaarten
  • Dagkaart
  • Meer »
  • Info
  • Statistieken
  • Directe link
    Temp 6h Neerslag Wind  
 09:40     15:42    Daglengte: 6:02 Morgen
01:00
 
11
07:00
 
13
13:00
5.2 mm
15
19:00
7.8 mm
13
 09:37     15:45    Daglengte: 6:08 Woensdag 19 Jan
01:00
1.5 mm
12
07:00
9.0 mm
12
13:00
19.7 mm
12
19:00
25.8 mm
11
warningclass
 09:35     15:48    Daglengte: 6:13 Donderdag 20 Jan
01:00
28.5 mm
14
07:00
41.5 mm
13
warningclass
13:00
35.1 mm
10
warningclass
19:00
47.0 mm
8
Locatie info
Region: Møre og Romsdal
Latitude: 63.1205°N
Longitude: 7.7141°E
1 masl
Postcode: 6509
Temp/Neerslag /Baro Onweer/DauwpuntSneeuw
    Temp Baro 1h Neerslag Dauwpunt Wind UV BewolkingSneeuw  
 09:40     15:42    Daglengte: 6:02 Morgen
00:00
Voelt als: 0.3°
1020.3 hPa
48%
4.3°
10
Windvlaag: 13.2 m/s
85%3 cm
01:00
Voelt als: 1.2°
1020.3 hPa
82%
5.0°
11
Windvlaag: 12 m/s
86%3 cm
02:00
Voelt als: 1.5°
1020.1 hPa
82%
5.1°
11
Windvlaag: 11.2 m/s
84%3 cm
03:00
Voelt als: 1.5°
1019.9 hPa
75%
5.0°
12
Windvlaag: 11.4 m/s
77%3 cm
04:00
Voelt als: 1.4°
1019.9 hPa
78%
4.7°
12
Windvlaag: 12 m/s
86%3 cm
05:00
Voelt als: 1.3°
1019.3 hPa
81%
4.8°
13
Windvlaag: 13 m/s
86%3 cm
06:00
Voelt als: 1.4°
1018.8 hPa
72%
4.9°
13
Windvlaag: 13.1 m/s
86%2 cm
07:00
Voelt als: 1.4°
1018.0 hPa
82%
5.0°
13
Windvlaag: 13.2 m/s
86%2 cm
08:00
Voelt als: 1.6°
1017.2 hPa
82%
5.2°
13
Windvlaag: 14 m/s
86%2 cm
09:00
Voelt als: 1.4°
1016.3 hPa
82%
5.5°
13
Windvlaag: 15.3 m/s
86%2 cm
10:00
Voelt als: 1.2°
1015.8 hPa 0.8 mm
82%
5.5°
14
Windvlaag: 15.5 m/s
86%2 cm
11:00
Voelt als: 1.0°
1015.5 hPa 1.3 mm
82%
5.4°
14
Windvlaag: 16.2 m/s
86%2 cm
12:00
Voelt als: 1.2°
1015.2 hPa 1.7 mm
82%
6.0°
15
Windvlaag: 17 m/s
86%2 cm
13:00
Voelt als: 1.7°
1015.0 hPa 1.4 mm
82%
6.4°
15
Windvlaag: 16.4 m/s
54%2 cm
14:00
Voelt als: 2.6°
1014.3 hPa 1.2 mm
82%
6.3°
13
Windvlaag: 16 m/s
84%2 cm
15:00
Voelt als: 3.0°
1014.0 hPa
82%
6.6°
13
Windvlaag: 15.9 m/s
86%2 cm
16:00
Voelt als: 3.1°
1013.4 hPa 1.4 mm
82%
6.7°
12
Windvlaag: 15.2 m/s
78%2 cm
17:00
Voelt als: 3.1°
1012.3 hPa 1.7 mm
82%
7.1°
12
Windvlaag: 14.6 m/s
86%2 cm
18:00
Voelt als: 3.0°
1011.2 hPa 1.8 mm
82%
6.7°
12
Windvlaag: 14.5 m/s
83%2 cm
19:00
Voelt als: 2.8°
1010.4 hPa 1.7 mm
82%
6.6°
13
Windvlaag: 14.6 m/s
79%2 cm
20:00
Voelt als: 2.7°
1009.7 hPa 1.5 mm
82%
6.5°
13
Windvlaag: 15.1 m/s
60%2 cm
21:00
Voelt als: 2.6°
1008.6 hPa
82%
6.3°
12
Windvlaag: 15.5 m/s
63%2 cm
22:00
Voelt als: 2.8°
1007.0 hPa
82%
6.0°
11
Windvlaag: 11.5 m/s
63%2 cm
23:00
Voelt als: 2.7°
1005.4 hPa
82%
5.2°
11
Windvlaag: 10.9 m/s
82%1 cm
 09:37     15:45    Daglengte: 6:08 Woensdag 19 Jan
00:00
Voelt als: 2.7°
1003.5 hPa
82%
4.7°
11
Windvlaag: 10 m/s
68%1 cm
01:00
Voelt als: 2.9°
1001.7 hPa
82%
4.8°
12
Windvlaag: 10.3 m/s
64%1 cm
02:00
Voelt als: 1.8°
1000.6 hPa
82%
4.6°
13
Windvlaag: 11.1 m/s
80%1 cm
03:00
Voelt als: 1.7°
999.5 hPa 1.7 mm
82%
4.7°
13
Windvlaag: 13.9 m/s
86%1 cm
04:00
Voelt als: 1.5°
998.2 hPa 1.7 mm
82%
4.0°
13
Windvlaag: 14.4 m/s
86%1 cm
05:00
Voelt als: 1.9°
996.4 hPa 1.6 mm
82%
4.4°
11
Windvlaag: 15.8 m/s
86%1 cm
06:00
Voelt als: 1.9°
994.5 hPa 1.7 mm
82%
5.2°
11
Windvlaag: 16.3 m/s
82%1 cm
07:00
Voelt als: 1.7°
992.8 hPa 2.3 mm
82%
5.4°
12
Windvlaag: 13.8 m/s
86%1 cm
08:00
Voelt als: 1.6°
991.4 hPa 2.4 mm
82%
5.3°
11
Windvlaag: 13.9 m/s
86%1 cm
09:00
Voelt als: 0.7°
990.8 hPa 3.9 mm
82%
4.7°
11
Windvlaag: 11.3 m/s
84%1 cm
10:00
Voelt als: -0.9°
992.0 hPa 3.5 mm
82%
3.3°
11
Windvlaag: 2.2 m/s
86%1 cm
11:00
Voelt als: -2.1°
993.8 hPa 3.5 mm
82%
1.8°
10
Windvlaag: -5.6 m/s
86%1 cm
12:00
Voelt als: -2.0°
995.2 hPa 3.0 mm
82%
1.6°
11
Windvlaag: -4.2 m/s
86%1 cm
13:00
Voelt als: -3.8°
997.1 hPa 3.3 mm
82%
-0.4°
12
Windvlaag: -6.8 m/s
86%1 cm
14:00
Voelt als: -4.5°
997.7 hPa 3.1 mm
82%
-1.0°
12
Windvlaag: -6.8 m/s
86%1 cm
15:00
Voelt als: -5.5°
998.9 hPa
82%
-2.3°
12
Windvlaag: -6.2 m/s
86%2 cm
16:00
Voelt als: -5.7°
999.3 hPa 5.7 mm
100%
-2.2°
11
Windvlaag: -6.8 m/s
100%2 cm
17:00
Voelt als: -6.9°
999.9 hPa 5.5 mm
100%
-1.8°
12
Windvlaag: -3.4 m/s
99%2 cm warningclass
18:00
Voelt als: -6.9°
999.9 hPa 5.8 mm
100%
-4.7°
12
Windvlaag: -7 m/s
76%2 cm warningclass
19:00
Voelt als: -7.0°
999.7 hPa 5.8 mm
79%
-1.2°
11
Windvlaag: -7.2 m/s
81%3 cm warningclass
20:00
Voelt als: -6.5°
998.9 hPa 3.7 mm
95%
-4.9°
11
Windvlaag: -7.2 m/s
96%3 cm warningclass
21:00
Voelt als: -6.1°
998.7 hPa 3.8 mm
100%
-0.2°
11
Windvlaag: -7.1 m/s
98%3 cm warningclass
22:00
Voelt als: -5.6°
1000.3 hPa 6.3 mm
100%
-2.8°
12
Windvlaag: -7 m/s
79%3 cm
23:00
Voelt als: -5.0°
1002.5 hPa
99%
-1.8°
12
Windvlaag: -6.6 m/s
75%3 cm
 09:35     15:48    Daglengte: 6:13 Donderdag 20 Jan
00:00
Voelt als: -5.9°
1004.2 hPa 6.9 mm
100%
0.8°
12
Windvlaag: -6.5 m/s
89%4 cm
01:00
Voelt als: -6.0°
1005.9 hPa 7.7 mm
100%
-1.4°
14
Windvlaag: -5.1 m/s
98%5 cm
02:00
Voelt als: -5.8°
1006.9 hPa 4.6 mm
100%
-1.2°
14
Windvlaag: -3.8 m/s
99%5 cm
03:00
Voelt als: -6.3°
1008.3 hPa 4.9 mm
100%
-1.6°
15
Windvlaag: -11.9 m/s
82%5 cm
04:00
Voelt als: -6.9°
1009.6 hPa 7.7 mm
100%
-0.8°
14
Windvlaag: -12 m/s
83%5 cm warningclass
05:00
Voelt als: -7.2°
1010.8 hPa 8.0 mm
100%
-3.3°
14
Windvlaag: -11.5 m/s
98%6 cm warningclass
06:00
Voelt als: -7.4°
1011.5 hPa 8.1 mm
100%
-7.5°
13
Windvlaag: -10.2 m/s
82%6 cm warningclass
07:00
Voelt als: -7.4°
1012.5 hPa 8.2 mm
97%
-6.4°
13
Windvlaag: -8.6 m/s
92%6 cm warningclass
08:00
-0°
Voelt als: -7.5°
1012.8 hPa
99%
-5.2°
11
Windvlaag: 15.9 m/s
89%6 cm
09:00
Voelt als: -7.0°
1013.6 hPa
98%
-2.3°
11
Windvlaag: 17.9 m/s
36%6 cm warningclass
10:00
Voelt als: -6.4°
1014.6 hPa 8.6 mm
99%
-3.7°
11
Windvlaag: 16.7 m/s
100%6 cm warningclass
11:00
Voelt als: -6.2°
1015.4 hPa 8.8 mm
99%
-3.7°
11
Windvlaag: 15.9 m/s
98%7 cm warningclass
12:00
Voelt als: -5.8°
1016.2 hPa 8.8 mm
100%
-5.4°
10
Windvlaag: 13.3 m/s
84%7 cm warningclass
13:00
Voelt als: -5.5°
1016.7 hPa 8.9 mm
100%
-5.6°
10
Windvlaag: 12.8 m/s
76%7 cm warningclass
14:00
Voelt als: -5.6°
1017.5 hPa 9.1 mm
100%
-1.5°
9
Windvlaag: 16.3 m/s
90%7 cm warningclass
15:00
Voelt als: -5.3°
1018.1 hPa 9.2 mm
100%
-1.6°
9
Windvlaag: 13.3 m/s
99%7 cm warningclass
16:00
Voelt als: -4.9°
1018.4 hPa 9.3 mm
100%
-4.6°
9
Windvlaag: 11.2 m/s
76%7 cm
17:00
Voelt als: -4.9°
1018.8 hPa 9.7 mm
100%
-1.6°
9
Windvlaag: 14 m/s
28%8 cm
18:00
Voelt als: -4.6°
1019.2 hPa 9.6 mm
100%
-4.6°
8
Windvlaag: 11.5 m/s
64%8 cm
19:00
Voelt als: -4.2°
1019.8 hPa
100%
-2.6°
8
Windvlaag: 11.2 m/s
91%8 cm
20:00
Voelt als: -3.5°
1020.1 hPa
99%
-1.9°
7
Windvlaag: 9.8 m/s
98%8 cm
21:00
Voelt als: -3.1°
1020.3 hPa
99%
-3.1°
7
Windvlaag: 10.3 m/s
91%8 cm
22:00
Voelt als: -2.9°
1020.6 hPa
99%
0.3°
6
Windvlaag: 8.5 m/s
92%8 cm
23:00
Voelt als: -2.7°
1020.6 hPa 10.1 mm
100%
-2.1°
7
Windvlaag: 10 m/s
98%8 cm
Temp/Neerslag /Baro Onweer/DauwpuntSneeuw
    Temp Baro Neerslag Dauwpunt Wind BewolkingSneeuw  
 09:40     15:42    Daglengte: 6:02 Morgen
01:00
Voelt als: 1.2°
1020.3 hPa   5.0°
11
86%3 cm
04:00
Voelt als: 1.4°
1019.9 hPa   4.7°
12
86%3 cm
07:00
Voelt als: 1.4°
1018.0 hPa   5.0°
13
86%2 cm
10:00
Voelt als: 1.2°
1015.8 hPa 0.8 mm 5.5°
14
86%2 cm
13:00
Voelt als: 1.7°
1015.0 hPa 4.4 mm 6.4°
15
54%2 cm
16:00
Voelt als: 3.1°
1013.4 hPa 2.6 mm 6.7°
12
78%2 cm
19:00
Voelt als: 2.8°
1010.4 hPa 5.2 mm 6.6°
13
79%2 cm
22:00
Voelt als: 2.8°
1007.0 hPa 1.5 mm 6.0°
11
63%2 cm
 09:37     15:45    Daglengte: 6:08 Woensdag 19 Jan
01:00
Voelt als: 2.9°
1001.7 hPa   4.8°
12
64%1 cm
04:00
Voelt als: 1.5°
998.2 hPa 3.4 mm 4.0°
13
86%1 cm
07:00
Voelt als: 1.7°
992.8 hPa 5.6 mm 5.4°
12
86%1 cm
10:00
Voelt als: -0.9°
992.0 hPa 9.9 mm 3.3°
11
86%1 cm
13:00
Voelt als: -3.8°
997.1 hPa 9.8 mm -0.4°
12
86%1 cm
16:00
Voelt als: -5.7°
999.3 hPa 8.8 mm -2.2°
11
100%2 cm
19:00
Voelt als: -7.0°
999.7 hPa 17.1 mm -1.2°
11
81%3 cm warningclass
22:00
Voelt als: -5.6°
1000.3 hPa 13.9 mm -2.8°
12
79%3 cm
 09:35     15:48    Daglengte: 6:13 Donderdag 20 Jan
01:00
Voelt als: -6.0°
1005.9 hPa 14.6 mm -1.4°
14
98%5 cm
04:00
Voelt als: -6.9°
1009.6 hPa 17.3 mm -0.8°
14
83%5 cm warningclass
07:00
Voelt als: -7.4°
1012.5 hPa 24.3 mm -6.4°
13
92%6 cm warningclass
10:00
Voelt als: -6.4°
1014.6 hPa 8.6 mm -3.7°
11
100%6 cm warningclass
13:00
Voelt als: -5.5°
1016.7 hPa 26.5 mm -5.6°
10
76%7 cm warningclass
16:00
Voelt als: -4.9°
1018.4 hPa 27.7 mm -4.6°
9
76%7 cm
19:00
Voelt als: -4.2°
1019.8 hPa 19.3 mm -2.6°
8
91%8 cm
22:00
Voelt als: -2.9°
1020.6 hPa   0.3°
6
92%8 cm
 09:32     15:51    Daglengte: 6:19 Vrijdag 21 Jan
01:00
Voelt als: -2.6°
1020.5 hPa 30.6 mm -1.2°
7
98%8 cm
04:00
Voelt als: -2.3°
1023.6 hPa 31.4 mm -0.5°
5
1%
07:00
Voelt als: -4.0°
1023.3 hPa 31.5 mm -0.6°
8
1%
10:00
Voelt als: -5.1°
1022.9 hPa 31.6 mm -3.2°
8
1%
13:00
Voelt als: -3.3°
1022.5 hPa 31.6 mm -3.7°
7
1%
16:00
Voelt als: -4.0°
1021.9 hPa 32.3 mm -1.7°
6
1%
19:00
Voelt als: -2.5°
1020.4 hPa 34.9 mm 1.5°
8
1%
22:00
Voelt als: -0.4°
1021.2 hPa 37.5 mm 3.1°
9
1%
 09:30     15:54    Daglengte: 6:24 Zaterdag 22 Jan
01:00
Voelt als: 0.7°
1020.9 hPa 37.5 mm 2.9°
9
1%
04:00
Voelt als: 0.6°
1021.2 hPa 37.6 mm 2.5°
10
1%
07:00
Voelt als: 1.4°
1021.0 hPa 37.7 mm 3.6°
11
1%
10:00
Voelt als: 1.0°
1021.2 hPa 37.7 mm 2.8°
11
1%
13:00
Voelt als: 1.3°
1021.2 hPa 37.7 mm 2.6°
10
1%
16:00
Voelt als: 1.9°
1021.3 hPa 37.7 mm 3.4°
9
1%
19:00
Voelt als: 2.7°
1022.6 hPa 37.7 mm 3.4°
11
1%
22:00
Voelt als: 2.4°
1022.6 hPa 37.7 mm 3.0°
10
1%
 09:27     15:57    Daglengte: 6:30 Zondag 23 Jan
01:00
Voelt als: 1.6°
1023.5 hPa 37.7 mm 2.8°
9
1%
04:00
Voelt als: 2.0°
1023.3 hPa 37.7 mm 2.7°
7
1%
07:00
Voelt als: 2.5°
1022.1 hPa 37.7 mm 2.4°
6
1%
10:00
Voelt als: 2.2°
1021.3 hPa 37.7 mm 2.4°
8
1%
13:00
Voelt als: 3.1°
1019.6 hPa 37.7 mm 3.9°
8
1%
16:00
Voelt als: 2.0°
1017.1 hPa 37.8 mm 3.9°
9
1%
19:00
Voelt als: 1.1°
1013.4 hPa 37.8 mm 2.5°
8
1%
22:00
Voelt als: 1.8°
1009.8 hPa 37.8 mm 2.0°
13
1%
 09:25     16:00    Daglengte: 6:35 Maandag 24 Jan
01:00
Voelt als: -1.8°
1012.7 hPa 42.1 mm 3.1°
14
1%
04:00
Voelt als: -2.4°
1012.4 hPa 42.7 mm -0.8°
15
1%
07:00
Voelt als: -4.4°
1009.6 hPa 43.9 mm 2.4°
16
1%
10:00
Voelt als: -4.4°
1009.8 hPa 46.5 mm 1.3°
15
1%
13:00
Voelt als: -4.1°
1009.9 hPa 47.6 mm -3.8°
15
1%
16:00
Voelt als: -7.4°
1012.7 hPa 49.6 mm -1.6°
17
1%
19:00
Voelt als: -6.5°
1016.7 hPa 50.2 mm -4.6°
14
1%
22:00
Voelt als: -6.2°
1021.0 hPa   -2.9°
14
1%
 09:22     16:03    Daglengte: 6:41 Dinsdag 25 Jan
01:00
Voelt als: -6.0°
1024.7 hPa 104.0 mm -3.5°
14
1%
07:00
Voelt als: -4.7°
1029.9 hPa 109.2 mm -3.5°
13
1%
13:00
Voelt als: -3.1°
1035.2 hPa 114.4 mm -3.1°
9
1%
19:00
Voelt als: -1.3°
1037.0 hPa 118.5 mm -1.3°
6
1%
 09:19     16:06    Daglengte: 6:47 Woensdag 26 Jan
01:00
Voelt als: -4.5°
1037.1 hPa 119.8 mm -0.1°
8
1%
07:00
Voelt als: -4.0°
1035.1 hPa 120.3 mm -3.9°
8
1%
13:00
Voelt als: -2.2°
1034.0 hPa 120.5 mm -1.0°
9
1%
19:00
Voelt als: -1.3°
1032.2 hPa 120.5 mm -2.6°
7
1%
 09:17     16:09    Daglengte: 6:52 Donderdag 27 Jan
01:00
Voelt als: -1.0°
1029.6 hPa 120.5 mm -2.8°
4
1%
07:00
Voelt als: -1.5°
1025.7 hPa 120.5 mm -3.7°
3
1%
13:00
Voelt als: -0.1°
1024.1 hPa 120.5 mm -2.9°
4
0%
19:00
Voelt als: -0.6°
1017.0 hPa 1.8 mm -0.9°
3
95%
 09:14     16:12    Daglengte: 6:58 Vrijdag 28 Jan
01:00
Voelt als: -1.6°
1015.8 hPa 2.2 mm -0.7°
4
90%
07:00
Voelt als: -1.5°
1013.8 hPa 1.8 mm -1.0°
4
90%
13:00
Voelt als: -0.9°
1013.0 hPa 1.7 mm -0.8°
3
83%
19:00
Voelt als: -1.4°
1013.1 hPa 1.3 mm -1.5°
3
87%
 09:11     16:15    Daglengte: 7:04 Zaterdag 29 Jan
01:00
Voelt als: -1.6°
1013.8 hPa 1.4 mm -1.5°
3
90%
07:00
Voelt als: -2.1°
1013.5 hPa 1.5 mm -1.6°
3
90%
13:00
Voelt als: -1.6°
1013.6 hPa 1.1 mm -1.1°
4
89%
19:00
Voelt als: -2.0°
1013.8 hPa 1.4 mm -1.5°
3
90%
 09:08     16:18    Daglengte: 7:10 Zondag 30 Jan
01:00
Voelt als: -3.3°
1013.7 hPa 0.9 mm -2.6°
4
83%
07:00
Voelt als: -3.3°
1012.2 hPa 1.6 mm -2.3°
4
81%
13:00
Voelt als: -2.6°
1013.0 hPa 1.7 mm -1.8°
4
82%
19:00
Voelt als: -2.9°
1013.9 hPa 1.7 mm -2.0°
4
81%
 09:06     16:22    Daglengte: 7:16 Maandag 31 Jan
01:00
Voelt als: -3.2°
1013.5 hPa 1.7 mm -2.0°
4
88%
07:00
Voelt als: -2.5°
1012.3 hPa 1.8 mm -1.6°
4
93%
13:00
Voelt als: -2.2°
1012.5 hPa 1.4 mm -0.9°
5
90%
19:00
Voelt als: -2.6°
1012.4 hPa 1.1 mm -1.7°
4
85%
 09:03     16:25    Daglengte: 7:22 Dinsdag 01 Feb
01:00
Voelt als: -3.6°
1011.4 hPa 1.1 mm -2.4°
5
76%
07:00
Voelt als: -3.8°
1010.0 hPa 1.7 mm -2.0°
6
80%
13:00
Voelt als: -2.9°
1009.4 hPa 1.5 mm -1.6°
5
78%
19:00
Voelt als: -2.9°
1008.5 hPa 1.8 mm -2.4°
4
79%
  CAPE Lifted Index Hail Supercell Tornado SRH 3km CL BTM PRES CL TOP PRES Swiss DWD icon SMHI TS
 09:40     15:42    Daglengte: 6:02 Morgen
00:00 0 J/kg 9.7 K 0 % 0 % 0 % 0 m²/s² 0 0 11.89 61
01:00 8 J/kg 9.8 K 0 % 0 % 0 % 0 m²/s² 0 0 12.56 61
02:00 4 J/kg 10.6 K 0 % 0 % 0 % 0 m²/s² 0 0 13.93 3
03:00 22 J/kg 10.3 K 0 % 0 % 0 % 0 m²/s² 0 0 15.1 3
04:00 19 J/kg 11.0 K 0 % 0 % 0 % 0 m²/s² 0 0 19.1 3
05:00 12 J/kg 11.2 K 0 % 0 % 0 % 0 m²/s² 0 0 17.17 3
06:00 6 J/kg 12.4 K 0 % 0 % 0 % 0 m²/s² 0 0 17.08 3
07:00 1 J/kg 11.4 K 0 % 0 % 0 % 0 m²/s² 0 0 11.97 61
08:00 0 J/kg 7.9 K 0 % 0 % 0 % 0 m²/s² 0 0 8.32 3
09:00 0 J/kg 5.9 K 0 % 0 % 0 % 0 m²/s² 0 0 6.26 61
10:00 0 J/kg 6.4 K 0 % 0 % 0 % 0 m²/s² 0 0 6.76 61
11:00 0 J/kg 7.6 K 0 % 0 % 0 % 0 m²/s² 0 0 7.93 61
12:00 0 J/kg 6.8 K 0 % 0 % 0 % 0 m²/s² 0 0 7.28 61
13:00 0 J/kg 8.0 K 0 % 0 % 0 % 0 m²/s² 0 0 12.56 61
14:00 0 J/kg 8.5 K 0 % 0 % 0 % 0 m²/s² 0 0 11.8 61
15:00 0 J/kg 7.5 K 0 % 0 % 0 % 0 m²/s² 0 0 10.47 61
16:00 0 J/kg 7.2 K 0 % 0 % 0 % 0 m²/s² 0 0 10.26 61
17:00 0 J/kg 5.4 K 0 % 0 % 0 % 0 m²/s² 0 0 5.67 61
18:00 0 J/kg 3.9 K 0 % 0 % 0 % 0 m²/s² 0 0 4.26 61
19:00 0 J/kg 4.3 K 0 % 0 % 0 % 0 m²/s² 0 0 4.63 61
20:00 0 J/kg 4.2 K 0 % 0 % 0 % 0 m²/s² 0 0 5.22 61
21:00 0 J/kg 4.8 K 0 % 0 % 0 % 0 m²/s² 0 0 8.01 61
22:00 0 J/kg 5.6 K 0 % 0 % 0 % 0 m²/s² 0 0 9.89 61
23:00 0 J/kg 6.4 K 0 % 0 % 0 % 0 m²/s² 0 0 7.72 61
 09:37     15:45    Daglengte: 6:08 Woensdag 19 Jan
00:00 0 J/kg 6.7 K 0 % 0 % 0 % 0 m²/s² 0 0 8.02 61
01:00 0 J/kg 6.2 K 0 % 0 % 0 % 0 m²/s² 0 0 7.4 61
02:00 0 J/kg 5.3 K 0 % 0 % 0 % 0 m²/s² 0 0 6.32 61
03:00 0 J/kg 4.0 K 0 % 0 % 0 % 0 m²/s² 0 0 4.9 61
04:00 0 J/kg 3.8 K 0 % 0 % 0 % 0 m²/s² 0 0 4.31 61
05:00 0 J/kg 2.6 K 0 % 0 % 0 % 0 m²/s² 0 0 3.92 61
06:00 0 J/kg 3.7 K 0 % 0 % 0 % 0 m²/s² 0 0 4.69 61
07:00 0 J/kg 3.6 K 0 % 0 % 0 % 0 m²/s² 0 0 4.83 61
08:00 0 J/kg 2.5 K 0 % 0 % 0 % 0 m²/s² 0 0 3.1 61
09:00 0 J/kg 1.9 K 0 % 0 % 0 % 0 m²/s² 0 0 2.44 63
10:00 4 J/kg 2.1 K 0 % 0 % 0 % 0 m²/s² 0 0 2.73 63
11:00 36 J/kg 4.9 K 0 % 0 % 0 % 0 m²/s² 0 0 5.41 61
12:00 62 J/kg 4.5 K 0 % 0 % 0 % 0 m²/s² 0 0 5.04 61
13:00 109 J/kg 3.4 K 0 % 0 % 0 % 0 m²/s² 0 0 3.91 61
14:00 2 J/kg 3.4 K 0 % 0 % 0 % 0 m²/s² 0 0 3.85 85
15:00 74 J/kg 5.2 K 0 % 0 % 0 % 0 m²/s² 0 0 5.83 85
16:00 64 J/kg 5.2 K 0 % 0 % 0 % 0 m²/s² 0 0 5.71 85
17:00 103 J/kg 4.7 K 0 % 0 % 0 % 0 m²/s² 0 0 6.05 85
18:00 67 J/kg 6.6 K 0 % 0 % 0 % 0 m²/s² 0 0 9.81 85
19:00 155 J/kg 4.6 K 0 % 0 % 0 % 0 m²/s² 0 0 5.56 1
20:00 97 J/kg 5.3 K 0 % 0 % 0 % 0 m²/s² 0 0 7.7 85
21:00 154 J/kg 3.5 K 0 % 0 % 0 % 0 m²/s² 0 0 4.28 85
22:00 90 J/kg 2.7 K 0 % 0 % 0 % 0 m²/s² 0 0 3.81 85
23:00 251 J/kg 0.1 K 0 % 0 % 0 % 0 m²/s² 0 0 0.94 2
 09:35     15:48    Daglengte: 6:13 Donderdag 20 Jan
00:00 171 J/kg -0.5 K 0 % 0 % 0 % 0 m²/s² 0 0 -0.14 85
01:00 113 J/kg 1.8 K 0 % 0 % 0 % 0 m²/s² 0 0 2.4 85
02:00 134 J/kg 2.9 K 0 % 0 % 0 % 0 m²/s² 0 0 3.53 85
03:00 155 J/kg 5.3 K 0 % 0 % 0 % 0 m²/s² 0 0 5.93 85
04:00 232 J/kg 6.3 K 0 % 0 % 0 % 0 m²/s² 0 0 7.11 85
05:00 149 J/kg 9.0 K 0 % 0 % 0 % 0 m²/s² 0 0 9.69 3
06:00 66 J/kg 12.0 K 0 % 0 % 0 % 0 m²/s² 0 0 13.56 85
07:00 97 J/kg 12.7 K 0 % 0 % 0 % 0 m²/s² 0 0 14.26 85
08:00 128 J/kg 12.1 K 0 % 0 % 0 % 0 m²/s² 0 0 13.63 85
09:00 113 J/kg 10.4 K 0 % 0 % 0 % 0 m²/s² 0 0 11 3
10:00 158 J/kg 10.6 K 0 % 0 % 0 % 0 m²/s² 0 0 12.4 85
11:00 124 J/kg 11.6 K 0 % 0 % 0 % 0 m²/s² 0 0 13.52 85
12:00 64 J/kg 12.6 K 0 % 0 % 0 % 0 m²/s² 0 0 15.45 85
13:00 55 J/kg 13.2 K 0 % 0 % 0 % 0 m²/s² 0 0 17.01 85
14:00 114 J/kg 11.7 K 0 % 0 % 0 % 0 m²/s² 0 0 13.77 85
15:00 113 J/kg 12.1 K 0 % 0 % 0 % 0 m²/s² 0 0 15.94 85
16:00 51 J/kg 13.8 K 0 % 0 % 0 % 0 m²/s² 0 0 21.24 85
17:00 72 J/kg 13.8 K 0 % 0 % 0 % 0 m²/s² 0 0 19.56 85
18:00 52 J/kg 14.8 K 0 % 0 % 0 % 0 m²/s² 0 0 20.23 85
19:00 53 J/kg 15.3 K 0 % 0 % 0 % 0 m²/s² 0 0 20.46 85
20:00 56 J/kg 15.3 K 0 % 0 % 0 % 0 m²/s² 0 0 19.59 85
21:00 33 J/kg 15.6 K 0 % 0 % 0 % 0 m²/s² 0 0 19.29 3
22:00 58 J/kg 15.0 K 0 % 0 % 0 % 0 m²/s² 0 0 17.88 85
23:00 47 J/kg 16.4 K 0 % 0 % 0 % 0 m²/s² 0 0 18.53 85
Temp Baro Wind Neerslag
  EWN Forecast EWN WRFDA DWD ICON FMI HIRLAM MET Norway GFS
 09:40     15:42    Daglengte: 6:02 Morgen
01:00 6.4° 1020.3 hPa 10.8 m/s 0.0 mm 5.6° 1018.2 hPa 9.8 m/s 1.3 mm 6.6° 1021.0 hPa 10.0 m/s -0.9 mm 6.7° 1018.8 hPa 10.4 m/s 0.0 mm 6.0° 1021.2 hPa 12.2 m/s
04:00 6.7° 1019.9 hPa 12.2 m/s 0.0 mm 5.6° 1018.4 hPa 9.8 m/s 2.5 mm 7.1° 1020.3 hPa 11.7 m/s 0.0 mm 7.0° 1018.8 hPa 11.3 m/s 0.0 mm 6.4° 1020.6 hPa 14.6 m/s
07:00 6.8° 1018.0 hPa 12.6 m/s 0.0 mm 5.4° 1017.4 hPa 10.2 m/s 3.5 mm 7.1° 1018.1 hPa 11.9 m/s 0.1 mm 7.1° 1017.2 hPa 12.2 m/s 0.0 mm 5.9° 1018.0 hPa 12.9 m/s
10:00 6.8° 1015.8 hPa 13.8 m/s 0.8 mm 5.9° 1015.0 hPa 13.5 m/s 5.8 mm 7.0° 1016.1 hPa 12.0 m/s 0.3 mm 7.5° 1014.3 hPa 13.3 m/s 0.0 mm 6.4° 1016.2 hPa 12.0 m/s
13:00 7.3° 1015.0 hPa 14.6 m/s 4.4 mm 6.2° 1014.6 hPa 12.3 m/s 13.7 mm 7.5° 1015.2 hPa 10.5 m/s 2.2 mm 7.6° 1013.9 hPa 15.0 m/s 0.0 mm 6.9° 1016.1 hPa 13.5 m/s
16:00 8.0° 1013.4 hPa 12.2 m/s 2.6 mm 6.6° 1013.3 hPa 10.9 m/s 15.7 mm 8.3° 1013.5 hPa 9.6 m/s 1.3 mm 8.5° 1012.4 hPa 12.0 m/s 0.0 mm 7.3° 1014.5 hPa 12.6 m/s
19:00 7.9° 1010.4 hPa 12.7 m/s 5.2 mm 6.4° 1010.1 hPa 10.9 m/s 17.3 mm 8.6° 1010.4 hPa 10.7 m/s 2.2 mm 8.2° 1009.4 hPa 12.7 m/s 0.0 mm 7.1° 1011.5 hPa 10.5 m/s
22:00 7.7° 1007.0 hPa 11.4 m/s 1.5 mm 6.6° 1006.5 hPa 13.4 m/s 19.8 mm 8.5° 1007.3 hPa 10.9 m/s 0.6 mm 7.8° 1006.0 hPa 10.8 m/s 0.0 mm 8.1° 1007.6 hPa 11.2 m/s
 09:37     15:45    Daglengte: 6:08 Woensdag 19 Jan
01:00 7.9° 1001.7 hPa 12.1 m/s 0.0 mm 5.9° 1001.1 hPa 11.8 m/s 19.9 mm 8.5° 1003.2 hPa 12.3 m/s 1.2 mm 7.5° 1000.9 hPa 11.2 m/s 0.0 mm 7.5° 1002.8 hPa 12.1 m/s
04:00 6.9° 998.2 hPa 12.8 m/s 3.4 mm 6.0° 996.6 hPa 10.5 m/s 19.9 mm 7.4° 999.1 hPa 12.4 m/s 1.9 mm 7.2° 995.8 hPa 10.4 m/s 0.0 mm 6.4° 998.7 hPa 9.8 m/s
07:00 7.0° 992.8 hPa 12.4 m/s 5.6 mm 6.1° 990.6 hPa 9.6 m/s 20.7 mm 7.2° 993.5 hPa 7.1 m/s 2.1 mm 7.4° 990.1 hPa 13.0 m/s 0.0 mm 5.8° 992.8 hPa 8.6 m/s
10:00 4.9° 992.0 hPa 11.5 m/s 9.9 mm 5.9° 984.7 hPa 10.3 m/s 22.6 mm 5.0° 992.9 hPa 9.8 m/s 8.3 mm 4.9° 989.6 hPa 11.9 m/s 0.0 mm 4.8° 988.1 hPa 9.1 m/s
13:00 2.9° 997.1 hPa 12.2 m/s 9.8 mm 3.7° 989.2 hPa 11.5 m/s 32.0 mm 2.8° 997.1 hPa 11.7 m/s 3.3 mm 2.4° 998.0 hPa 12.3 m/s 0.0 mm 3.8° 993.1 hPa 10.7 m/s
16:00 1.3° 999.3 hPa 11.5 m/s 8.8 mm 1.2° 994.0 hPa 13.5 m/s 45.9 mm 0.7° 1000.0 hPa 11.0 m/s 1.4 mm 1.4° 997.3 hPa 18.1 m/s
19:00 0.3° 999.7 hPa 11.1 m/s 17.1 mm -0.5° 996.1 hPa 9.1 m/s 48.9 mm 0.1° 999.7 hPa 11.2 m/s 0.4 mm -0.5° 1001.0 hPa 13.3 m/s
22:00 1.5° 1000.3 hPa 11.7 m/s 13.9 mm 1.8° 996.3 hPa 11.5 m/s 54.1 mm 1.1° 999.8 hPa 13.2 m/s 0.9 mm 1.3° 1000.8 hPa 9.1 m/s
 09:35     15:48    Daglengte: 6:13 Donderdag 20 Jan
01:00 1.5° 1005.9 hPa 13.6 m/s 14.6 mm 0.9° 1002.2 hPa 16.4 m/s 59.9 mm 1.3° 1005.9 hPa 13.7 m/s 1.2 mm 2.0° 1005.9 hPa 19.2 m/s
04:00 0.9° 1009.6 hPa 14.1 m/s 17.3 mm -1.0° 1006.8 hPa 14.2 m/s 66.2 mm 0.6° 1009.5 hPa 12.3 m/s 0.7 mm 0.1° 1010.6 hPa 16.0 m/s
07:00 0.4° 1012.5 hPa 13.4 m/s 24.3 mm -1.2° 1009.4 hPa 13.6 m/s 71.6 mm 0.1° 1012.6 hPa 11.4 m/s 0.2 mm -0.6° 1014.0 hPa 14.6 m/s
10:00 0.7° 1014.6 hPa 10.9 m/s 8.6 mm 0.3° 1012.7 hPa 13.2 m/s 73.8 mm 0.8° 1015.1 hPa 10.3 m/s 0.3 mm 0.5° 1016.7 hPa 12.5 m/s
13:00 1.1° 1016.7 hPa 9.6 m/s 26.5 mm 0.5° 1015.1 hPa 11.3 m/s 78.4 mm 1.2° 1017.1 hPa 9.1 m/s 0.5 mm 1.1° 1018.9 hPa 12.2 m/s
16:00 1.2° 1018.4 hPa 8.5 m/s 27.7 mm 0.3° 1017.4 hPa 9.7 m/s 81.8 mm 1.5° 1018.7 hPa 8.2 m/s 0.6 mm 0.9° 1020.7 hPa 11.8 m/s
19:00 1.6° 1019.8 hPa 7.6 m/s 19.3 mm 0.4° 1018.9 hPa 8.0 m/s 86.6 mm 1.9° 1020.0 hPa 7.5 m/s 0.4 mm 1.2° 1022.3 hPa 10.2 m/s
22:00 2.1° 1020.6 hPa 6.3 m/s 0.0 mm 0.3° 1019.9 hPa 6.0 m/s 88.5 mm 2.5° 1020.8 hPa 6.3 m/s 0.2 mm 1.6° 1023.8 hPa 8.1 m/s
 09:32     15:51    Daglengte: 6:19 Vrijdag 21 Jan
01:00 2.8° 1020.5 hPa 7.5 m/s 30.6 mm 1.0° 1020.6 hPa 6.5 m/s 90.2 mm 3.2° 1020.5 hPa 7.7 m/s 0.8 mm 2.1° 1023.6 hPa 5.9 m/s
04:00 2.1° 1023.6 hPa 5.0 m/s 31.4 mm 2.1° 1023.6 hPa 5.0 m/s 31.4 mm
07:00 1.6° 1023.3 hPa 7.6 m/s 31.5 mm 1.6° 1023.3 hPa 7.6 m/s 31.5 mm
10:00 0.8° 1022.9 hPa 7.6 m/s 31.6 mm 0.8° 1022.9 hPa 7.6 m/s 31.6 mm
13:00 1.9° 1022.5 hPa 6.7 m/s 31.6 mm 1.9° 1022.5 hPa 6.7 m/s 31.6 mm
16:00 1.2° 1021.9 hPa 6.2 m/s 32.3 mm 1.2° 1021.9 hPa 6.2 m/s 32.3 mm
19:00 2.8° 1020.4 hPa 7.6 m/s 34.9 mm 2.8° 1020.4 hPa 7.6 m/s 34.9 mm
22:00 4.8° 1021.2 hPa 8.9 m/s 37.5 mm 4.8° 1021.2 hPa 8.9 m/s 37.5 mm
 09:30     15:54    Daglengte: 6:24 Zaterdag 22 Jan
01:00 5.7° 1020.9 hPa 9.4 m/s 37.5 mm 5.7° 1020.9 hPa 9.4 m/s 37.5 mm
04:00 5.7° 1021.2 hPa 9.5 m/s 37.6 mm 5.7° 1021.2 hPa 9.5 m/s 37.6 mm
07:00 6.5° 1021.0 hPa 10.6 m/s 37.7 mm 6.5° 1021.0 hPa 10.6 m/s 37.7 mm
10:00 6.2° 1021.2 hPa 10.9 m/s 37.7 mm 6.2° 1021.2 hPa 10.9 m/s 37.7 mm
13:00 6.3° 1021.2 hPa 10.2 m/s 37.7 mm 6.3° 1021.2 hPa 10.2 m/s 37.7 mm
16:00 6.6° 1021.3 hPa 8.9 m/s 37.7 mm 6.6° 1021.3 hPa 8.9 m/s 37.7 mm
19:00 7.5° 1022.6 hPa 10.9 m/s 37.7 mm 7.5° 1022.6 hPa 10.9 m/s 37.7 mm
22:00 7.1° 1022.6 hPa 9.8 m/s 37.7 mm 7.1° 1022.6 hPa 9.8 m/s 37.7 mm
 09:27     15:57    Daglengte: 6:30 Zondag 23 Jan
01:00 6.4° 1023.5 hPa 9.3 m/s 37.7 mm 6.4° 1023.5 hPa 9.3 m/s 37.7 mm
04:00 6.1° 1023.3 hPa 6.7 m/s 37.7 mm 6.1° 1023.3 hPa 6.7 m/s 37.7 mm
07:00 6.3° 1022.1 hPa 6.3 m/s 37.7 mm 6.3° 1022.1 hPa 6.3 m/s 37.7 mm
10:00 6.4° 1021.3 hPa 7.5 m/s 37.7 mm 6.4° 1021.3 hPa 7.5 m/s 37.7 mm
13:00 7.3° 1019.6 hPa 8.0 m/s 37.7 mm 7.3° 1019.6 hPa 8.0 m/s 37.7 mm
16:00 6.6° 1017.1 hPa 8.6 m/s 37.8 mm 6.6° 1017.1 hPa 8.6 m/s 37.8 mm
19:00 5.7° 1013.4 hPa 8.1 m/s 37.8 mm 5.7° 1013.4 hPa 8.1 m/s 37.8 mm
22:00 7.1° 1009.8 hPa 12.6 m/s 37.8 mm 7.1° 1009.8 hPa 12.6 m/s 37.8 mm
 09:25     16:00    Daglengte: 6:35 Maandag 24 Jan
01:00 4.6° 1012.7 hPa 13.6 m/s 42.1 mm 4.6° 1012.7 hPa 13.6 m/s 42.1 mm
04:00 4.4° 1012.4 hPa 14.8 m/s 42.7 mm 4.4° 1012.4 hPa 14.8 m/s 42.7 mm
07:00 3.0° 1009.6 hPa 15.6 m/s 43.9 mm 3.0° 1009.6 hPa 15.6 m/s 43.9 mm
10:00 3.0° 1009.8 hPa 15.4 m/s 46.5 mm 3.0° 1009.8 hPa 15.4 m/s 46.5 mm
13:00 3.2° 1009.9 hPa 15.0 m/s 47.6 mm 3.2° 1009.9 hPa 15.0 m/s 47.6 mm
16:00 1.0° 1012.7 hPa 16.8 m/s 49.6 mm 1.0° 1012.7 hPa 16.8 m/s 49.6 mm
19:00 1.2° 1016.7 hPa 14.2 m/s 50.2 mm 1.2° 1016.7 hPa 14.2 m/s 50.2 mm
22:00 1.4° 1021.0 hPa 13.7 m/s 51.4 mm 1.4° 1021.0 hPa 13.7 m/s 51.4 mm
 09:22     16:03    Daglengte: 6:41 Dinsdag 25 Jan
01:00 1.5° 1024.7 hPa 13.6 m/s 52.6 mm 1.5° 1024.7 hPa 13.6 m/s 52.6 mm
07:00 2.4° 1029.9 hPa 12.9 m/s 55.3 mm 2.4° 1029.9 hPa 12.9 m/s 55.3 mm
13:00 2.8° 1035.2 hPa 9.3 m/s 57.8 mm 2.8° 1035.2 hPa 9.3 m/s 57.8 mm
19:00 3.2° 1037.0 hPa 5.8 m/s 59.6 mm 3.2° 1037.0 hPa 5.8 m/s 59.6 mm
 09:19     16:06    Daglengte: 6:47 Woensdag 26 Jan
01:00 1.5° 1037.1 hPa 8.3 m/s 60.0 mm 1.5° 1037.1 hPa 8.3 m/s 60.0 mm
07:00 1.7° 1035.1 hPa 7.8 m/s 60.2 mm 1.7° 1035.1 hPa 7.8 m/s 60.2 mm
13:00 3.4° 1034.0 hPa 8.8 m/s 60.2 mm 3.4° 1034.0 hPa 8.8 m/s 60.2 mm
19:00 3.5° 1032.2 hPa 6.7 m/s 60.2 mm 3.5° 1032.2 hPa 6.7 m/s 60.2 mm
 09:17     16:09    Daglengte: 6:52 Donderdag 27 Jan
01:00 2.5° 1029.6 hPa 3.6 m/s 60.3 mm 2.5° 1029.6 hPa 3.6 m/s 60.3 mm
07:00 1.9° 1025.7 hPa 3.5 m/s 60.3 mm 1.9° 1025.7 hPa 3.5 m/s 60.3 mm
13:00 3.2° 1024.1 hPa 3.7 m/s 60.3 mm 3.2° 1024.1 hPa 3.7 m/s 60.3 mm
19:00 2.2° 1017.0 hPa 2.6 m/s 1.8 mm
 09:14     16:12    Daglengte: 6:58 Vrijdag 28 Jan
01:00 2.1° 1015.8 hPa 3.8 m/s 2.2 mm
07:00 2.0° 1013.8 hPa 3.5 m/s 1.8 mm
13:00 2.3° 1013.0 hPa 3.1 m/s 1.7 mm
19:00 1.6° 1013.1 hPa 2.7 m/s 1.3 mm
 09:11     16:15    Daglengte: 7:04 Zaterdag 29 Jan
01:00 1.2° 1013.8 hPa 2.6 m/s 1.4 mm
07:00 1.1° 1013.5 hPa 3.0 m/s 1.5 mm
13:00 2.0° 1013.6 hPa 3.7 m/s 1.1 mm
19:00 1.4° 1013.8 hPa 3.2 m/s 1.4 mm
 09:08     16:18    Daglengte: 7:10 Zondag 30 Jan
01:00 0.8° 1013.7 hPa 3.9 m/s 0.9 mm
07:00 0.7° 1012.2 hPa 3.9 m/s 1.6 mm
13:00 1.5° 1013.0 hPa 4.2 m/s 1.7 mm
19:00 1.3° 1013.9 hPa 4.3 m/s 1.7 mm
 09:06     16:22    Daglengte: 7:16 Maandag 31 Jan
01:00 1.1° 1013.5 hPa 4.3 m/s 1.7 mm
07:00 1.5° 1012.3 hPa 4.1 m/s 1.8 mm
13:00 2.2° 1012.5 hPa 5.1 m/s 1.4 mm
19:00 1.5° 1012.4 hPa 4.3 m/s 1.1 mm
 09:03     16:25    Daglengte: 7:22 Dinsdag 01 Feb
01:00 1.0° 1011.4 hPa 4.8 m/s 1.1 mm
07:00 1.2° 1010.0 hPa 5.7 m/s 1.7 mm
13:00 1.8° 1009.4 hPa 5.5 m/s 1.5 mm
19:00 1.2° 1008.5 hPa 4.0 m/s 1.8 mm
FMI Hirlam - 7.5 km EWN WRFDA - 12 km DWD ICON - 7 km GFS - 25 km Basiskaart






























































Updatetijd (Europe/Amsterdam) Resolutie Lengte Stap
FMI Hirlam 18:15, 00:15, 06:15, 12:15 7.5 km 49h 1h
EWN WRFDA 20:45, 02:45, 08:45, 14:45 12 km 73h 1h
DWD ICON 22:45, 04:45, 10:45, 16:45 7 km 75h 1h
GFS 18:45, 00:45, 06:45, 12:45 25 km 237h 3h
30+ mm
25-30 mm
20-25 mm
15-20 mm
10-15 mm
6-10 mm
4-6 mm
2-4 mm
1-2 mm
0.5-1 mm
0.2-0.5 mm
0.1-0.2 mm
30+ mm
25-30 mm
20-25 mm
15-20 mm
10-15 mm
6-10 mm
4-6 mm
2-4 mm
1-2 mm
0.5-1 mm
0.2-0.5 mm
0.1-0.2 mm
Sneeuwval
Natte sneeuw
Hagel
Vorst
30+ mm
25-30 mm
20-25 mm
15-20 mm
10-15 mm
6-10 mm
4-6 mm
2-4 mm
1-2 mm
0.5-1 mm
0.2-0.5 mm
0.1-0.2 mm
Sneeuwval
Natte sneeuw
Hagel
Vorst
Onweer
50 mm
40 mm
30 mm
26 mm
22 mm
18 mm
14 mm
10 mm
9 mm
8 mm
7 mm
6 mm
5 mm
4.5 mm
4 mm
3.5 mm
3 mm
2.5 mm
2 mm
1.5 mm
1 mm
0.8 mm
0.6 mm
0.4 mm
0.2 mm
0.05 mm
35°
30°
25°
20°
15°
10°
-5°
-10°
-15°
-20°
-25°
-30°
-35°
33> m/s
29 m/s
25 m/s
21 m/s
17 m/s
14 m/s
11 m/s
8 m/s
5 m/s
3 m/s
0 m/s
2600 J/kg
2400 J/kg
2200 J/kg
2000 J/kg
1800 J/kg
1600 J/kg
1400 J/kg
1200 J/kg
1000 J/kg
800 J/kg
600 J/kg
400 J/kg
200 J/kg
70 dBZ
65 dBZ
60 dBZ
55 dBZ
50 dBZ
45 dBZ
40 dBZ
35 dBZ
30 dBZ
25 dBZ
20 dBZ
15 dBZ
10 dBZ
5 dBZ
-1 K
-2 K
-3 K
-4 K
-5 K
-6 K
-7 K
-8 K
-9 K
950 m²/s²
900 m²/s²
850 m²/s²
800 m²/s²
750 m²/s²
700 m²/s²
650 m²/s²
600 m²/s²
550 m²/s²
500 m²/s²
450 m²/s²
400 m²/s²
350 m²/s²
300 m²/s²
250 m²/s²
200 m²/s²
150 m²/s²
100 m²/s²
46 m/s
44 m/s
42 m/s
40 m/s
38 m/s
36 m/s
34 m/s
32 m/s
30 m/s
28 m/s
26 m/s
24 m/s
22 m/s
20 m/s
16 m/s
12 m/s
8 m/s
4 m/s
30 m/s
28 m/s
26 m/s
24 m/s
22 m/s
20 m/s
18 m/s
16 m/s
14 m/s
12 m/s
10 m/s
8 m/s
6 m/s
4 m/s
2 m/s
3.0
2.8
2.6
2.4
2.2
2.0
1.8
1.6
1.4
1.2
1.0
0.8
0.6
0.4
0.2
15
14
13
12
11
10
9
8
7
6
5
4
3
2
1
90%
80%
70%
60%
50%
40%
30%
20%
10%
42
40
38
36
34
32
30
28
26
24
22
20
18
16
14
12
90+ cm
80-90 cm
70-80 cm
60-70 cm
50-60 cm
40-50 cm
30-40 cm
20-30 cm
10-20 cm
1-10 cm
Sneeuwval
Natte sneeuw
Regen
>120 mm
115 mm
110 mm
105 mm
100 mm
95 mm
90 mm
85 mm
80 mm
75 mm
70 mm
65 mm
60 mm